Starlink 31822

operational
NORAD ID: 59752 Int'l Des: 2024-090 Owner: SPXS Country: US Constellation: starlink
LEOCIRCULAR

Starlink 31822について

説明を読み込み中...

リアルタイム位置

3D地球を読み込み中...

次回通過

高度履歴

Altitude vs Time

uPlot chart will show altitude changes over time

軌道要素

1 59752U 24090Y 25304.76132763 -.00000070 00000-0 69842-5 0 9994
2 59752 42.9994 191.4884 0001310 252.9585 107.1123 15.27572909 83714
Epoch: Oct 31, 2025 • Age: 19 hours

現在のステータス

高度 487.1 km
速度 7.63 km/s
衛星直下点 43.16°N, 33.1°E
打ち上げ日 May 13, 2024
運用期間 1.4 years
タイプ internet

技術仕様

分類 Payload
質量 730.00 kg
乾燥質量 700.00 kg
総質量 730.00 kg
長さ 0.30 m
直径 4.10 m
スパン 29.00 m
形状 Box + pan
製造者 SPXS
バスタイプ Starlink V2M
フェーズステータス In Orbit
所有者/国 SPXS/US

大規模コンステレーション

Loading constellations...